Meteo orario Abramiha

Oggi, 14 Giugno, Lunedi

Tempo Temperatura Precipitazioni Vento Pressione Umidità
00:00 +17°C° 0 mm 2 m/s 742 mm Hg 78%
01:00 +16°C° 0 mm 2 m/s 743 mm Hg 80%
02:00 +16°C° 0 mm 2 m/s 743 mm Hg 80%
03:00 +16°C° 0 mm 2 m/s 743 mm Hg 81%
04:00 +17°C° 0 mm 2 m/s 744 mm Hg 81%
05:00 +18°C° 0 mm 1 m/s 744 mm Hg 82%
06:00 +19°C° 0 mm 1 m/s 744 mm Hg 77%
07:00 +21°C° 0 mm 1 m/s 745 mm Hg 72%
08:00 +21°C° 0 mm 2 m/s 745 mm Hg 68%
09:00 +23°C° 0.1 mm 2 m/s 745 mm Hg 66%
10:00 +23°C° 0.1 mm 2 m/s 746 mm Hg 64%
11:00 +24°C° 0.1 mm 3 m/s 746 mm Hg 62%
12:00 +24°C° 0.4 mm 3 m/s 746 mm Hg 61%
13:00 +24°C° 0.4 mm 2 m/s 746 mm Hg 60%
14:00 +25°C° 0.4 mm 2 m/s 746 mm Hg 58%
15:00 +24°C° 0.2 mm 2 m/s 746 mm Hg 60%
16:00 +24°C° 0.2 mm 2 m/s 747 mm Hg 61%
17:00 +24°C° 0.2 mm 2 m/s 747 mm Hg 62%
18:00 +21°C° 0 mm 2 m/s 747 mm Hg 69%
19:00 +19°C° 0 mm 2 m/s 747 mm Hg 76%
20:00 +18°C° 0 mm 1 m/s 747 mm Hg 83%
21:00 +16°C° 0 mm 1 m/s 747 mm Hg 85%
22:00 +15°C° 0 mm 1 m/s 747 mm Hg 87%
23:00 +14°C° 0 mm 0 m/s 747 mm Hg 88%

Domani, 15 Giugno, Martedi

Tempo Temperatura Precipitazioni Vento Pressione Umidità
00:00 +13°C° 0 mm 0 m/s 747 mm Hg 89%
01:00 +13°C° 0 mm 0 m/s 747 mm Hg 89%
02:00 +12°C° 0 mm 0 m/s 747 mm Hg 90%
03:00 +13°C° 0 mm 0 m/s 747 mm Hg 88%
04:00 +15°C° 0 mm 1 m/s 747 mm Hg 85%
05:00 +16°C° 0 mm 1 m/s 746 mm Hg 83%
06:00 +19°C° 0 mm 1 m/s 746 mm Hg 76%
07:00 +21°C° 0 mm 1 m/s 746 mm Hg 70%
08:00 +23°C° 0 mm 2 m/s 746 mm Hg 63%
09:00 +24°C° 0.1 mm 2 m/s 745 mm Hg 60%
10:00 +24°C° 0.1 mm 2 m/s 745 mm Hg 57%
11:00 +25°C° 0.1 mm 2 m/s 745 mm Hg 54%
12:00 +25°C° 0 mm 2 m/s 744 mm Hg 53%
13:00 +26°C° 0 mm 2 m/s 744 mm Hg 53%
14:00 +26°C° 0 mm 2 m/s 743 mm Hg 52%
15:00 +26°C° 0 mm 2 m/s 743 mm Hg 52%
16:00 +26°C° 0 mm 2 m/s 743 mm Hg 51%
17:00 +26°C° 0 mm 2 m/s 743 mm Hg 51%
18:00 +24°C° 0 mm 2 m/s 743 mm Hg 57%
19:00 +20°C° 0 mm 2 m/s 742 mm Hg 64%
20:00 +18°C° 0 mm 2 m/s 742 mm Hg 70%
21:00 +17°C° 0 mm 2 m/s 743 mm Hg 74%
22:00 +16°C° 0 mm 2 m/s 743 mm Hg 78%
23:00 +15°C° 0 mm 2 m/s 743 mm Hg 82%

Dopodomani, 16 Giugno, Mercoledi

Tempo Temperatura Precipitazioni Vento Pressione Umidità
00:00 +14°C° 0 mm 2 m/s 743 mm Hg 87%
01:00 +14°C° 0 mm 2 m/s 743 mm Hg 92%
02:00 +14°C° 0 mm 2 m/s 743 mm Hg 97%
03:00 +14°C° 0.2 mm 2 m/s 744 mm Hg 96%
04:00 +14°C° 0.2 mm 2 m/s 744 mm Hg 96%
05:00 +15°C° 0.2 mm 2 m/s 744 mm Hg 96%
06:00 +16°C° 0 mm 3 m/s 745 mm Hg 82%
07:00 +17°C° 0 mm 3 m/s 745 mm Hg 69%
08:00 +18°C° 0 mm 4 m/s 746 mm Hg 55%
09:00 +19°C° 0 mm 4 m/s 746 mm Hg 49%
10:00 +20°C° 0 mm 4 m/s 746 mm Hg 43%
11:00 +21°C° 0 mm 4 m/s 746 mm Hg 37%
12:00 +22°C° 0 mm 4 m/s 747 mm Hg 36%
13:00 +22°C° 0 mm 4 m/s 747 mm Hg 35%
14:00 +22°C° 0 mm 4 m/s 747 mm Hg 35%
15:00 +22°C° 0 mm 4 m/s 747 mm Hg 38%
16:00 +21°C° 0 mm 4 m/s 748 mm Hg 41%
17:00 +21°C° 0 mm 3 m/s 748 mm Hg 44%
18:00 +19°C° 0 mm 3 m/s 748 mm Hg 50%
19:00 +17°C° 0 mm 2 m/s 749 mm Hg 56%
20:00 +16°C° 0 mm 2 m/s 749 mm Hg 62%
21:00 +15°C° 0 mm 2 m/s 749 mm Hg 65%
22:00 +13°C° 0 mm 2 m/s 750 mm Hg 67%
23:00 +12°C° 0 mm 2 m/s 750 mm Hg 70%

17 Giugno, Giovedi

Tempo Temperatura Precipitazioni Vento Pressione Umidità
00:00 +12°C° 0 mm 2 m/s 751 mm Hg 73%
01:00 +10°C° 0 mm 2 m/s 751 mm Hg 75%
02:00 +10°C° 0 mm 2 m/s 751 mm Hg 78%
03:00 +12°C° 0 mm 2 m/s 752 mm Hg 76%
04:00 +13°C° 0 mm 2 m/s 752 mm Hg 75%
05:00 +14°C° 0 mm 2 m/s 752 mm Hg 74%
06:00 +16°C° 0 mm 2 m/s 752 mm Hg 67%
07:00 +18°C° 0 mm 3 m/s 753 mm Hg 60%
08:00 +20°C° 0 mm 3 m/s 753 mm Hg 54%
09:00 +21°C° 0 mm 3 m/s 753 mm Hg 49%
10:00 +22°C° 0 mm 3 m/s 753 mm Hg 45%
11:00 +23°C° 0 mm 4 m/s 753 mm Hg 41%
12:00 +25°C° 0 mm 4 m/s 753 mm Hg 40%
13:00 +25°C° 0 mm 4 m/s 753 mm Hg 39%
14:00 +26°C° 0 mm 4 m/s 753 mm Hg 38%
15:00 +25°C° 0 mm 3 m/s 753 mm Hg 42%
16:00 +25°C° 0 mm 3 m/s 753 mm Hg 45%
17:00 +25°C° 0 mm 2 m/s 753 mm Hg 48%
18:00 +23°C° 0 mm 2 m/s 753 mm Hg 55%
19:00 +20°C° 0 mm 2 m/s 753 mm Hg 62%
20:00 +19°C° 0 mm 1 m/s 754 mm Hg 69%
21:00 +18°C° 0 mm 1 m/s 754 mm Hg 70%
22:00 +16°C° 0 mm 1 m/s 754 mm Hg 71%
23:00 +15°C° 0 mm 1 m/s 754 mm Hg 72%

18 Giugno, Venerdi

Tempo Temperatura Precipitazioni Vento Pressione Umidità
00:00 +15°C° 0 mm 1 m/s 755 mm Hg 74%
01:00 +14°C° 0 mm 1 m/s 755 mm Hg 76%
02:00 +14°C° 0 mm 1 m/s 755 mm Hg 78%
03:00 +15°C° 0 mm 1 m/s 755 mm Hg 77%
04:00 +16°C° 0 mm 1 m/s 755 mm Hg 76%
05:00 +16°C° 0 mm 1 m/s 755 mm Hg 75%
06:00 +19°C° 0 mm 1 m/s 755 mm Hg 69%
07:00 +21°C° 0 mm 1 m/s 755 mm Hg 62%
08:00 +23°C° 0 mm 1 m/s 755 mm Hg 56%
09:00 +24°C° 0 mm 2 m/s 755 mm Hg 52%
10:00 +26°C° 0 mm 2 m/s 755 mm Hg 48%
11:00 +27°C° 0 mm 2 m/s 755 mm Hg 44%
12:00 +27°C° 0 mm 2 m/s 755 mm Hg 43%
13:00 +28°C° 0 mm 3 m/s 754 mm Hg 42%
14:00 +29°C° 0 mm 3 m/s 754 mm Hg 41%
15:00 +28°C° 0 mm 3 m/s 754 mm Hg 43%
16:00 +28°C° 0 mm 3 m/s 754 mm Hg 46%
17:00 +28°C° 0 mm 3 m/s 753 mm Hg 49%
18:00 +26°C° 0 mm 2 m/s 753 mm Hg 57%
19:00 +24°C° 0 mm 2 m/s 753 mm Hg 65%
20:00 +21°C° 0 mm 2 m/s 753 mm Hg 73%
21:00 +20°C° 0 mm 2 m/s 753 mm Hg 76%
22:00 +18°C° 0 mm 2 m/s 754 mm Hg 78%
23:00 +17°C° 0 mm 2 m/s 754 mm Hg 81%

19 Giugno, Sabato

Tempo Temperatura Precipitazioni Vento Pressione Umidità
00:00 +17°C° 0 mm 2 m/s 754 mm Hg 82%
01:00 +16°C° 0 mm 2 m/s 754 mm Hg 82%
02:00 +16°C° 0 mm 2 m/s 754 mm Hg 83%
03:00 +17°C° 0 mm 3 m/s 754 mm Hg 81%
04:00 +18°C° 0 mm 3 m/s 754 mm Hg 80%
05:00 +18°C° 0 mm 3 m/s 754 mm Hg 78%
06:00 +20°C° 0 mm 3 m/s 754 mm Hg 72%
07:00 +22°C° 0 mm 3 m/s 754 mm Hg 66%
08:00 +25°C° 0 mm 4 m/s 754 mm Hg 60%
09:00 +27°C° 0 mm 4 m/s 754 mm Hg 55%
10:00 +28°C° 0 mm 4 m/s 754 mm Hg 50%
11:00 +29°C° 0 mm 5 m/s 754 mm Hg 45%
12:00 +30°C° 0 mm 4 m/s 754 mm Hg 44%
13:00 +30°C° 0 mm 4 m/s 753 mm Hg 42%
14:00 +32°C° 0 mm 4 m/s 753 mm Hg 41%
15:00 +31°C° 0 mm 3 m/s 753 mm Hg 44%
16:00 +30°C° 0 mm 3 m/s 753 mm Hg 47%
17:00 +30°C° 0 mm 2 m/s 753 mm Hg 50%
18:00 +28°C° 0 mm 2 m/s 753 mm Hg 57%
19:00 +26°C° 0 mm 2 m/s 753 mm Hg 64%
20:00 +24°C° 0 mm 1 m/s 753 mm Hg 71%
21:00 +23°C° 0 mm 1 m/s 753 mm Hg 71%
22:00 +22°C° 0 mm 1 m/s 753 mm Hg 71%
23:00 +21°C° 0 mm 1 m/s 754 mm Hg 72%
Mostrare altro

Abbiamo bisogno del tuo consenso

Meteoprog e i nostri fornitori di servizi possono memorizzare e accedere a dati personali come cookie, identificatori di dispositivi o altre tecnologie simili sul tuo dispositivo e possono elaborare tali dati per personalizzare i contenuti e gli annunci, nonché fornire funzionalità dei social media e analizzarne il traffico.

  • Archiviare e/o accedere alle informazioni sul tuo dispositivo

    Cookie, identificatori di dispositivi o altre informazioni possono essere memorizzati o resi accessibili sul tuo dispositivo per le finalità sopra indicate.

  • Annunci e contenuti personalizzati, misurazione di annunci e contenuti, approfondimenti sul pubblico e sviluppo di prodotti

    Gli annunci e i contenuti possono essere personalizzati in base a un profilo. È possibile aggiungere più dati per personalizzare meglio annunci e contenuti. È possibile misurare il rendimento degli annunci e dei contenuti. È possibile ricavare informazioni sul pubblico che ha visto gli annunci e i contenuti. Tali dati possono essere utilizzati per sviluppare o migliorare l'esperienza, i sistemi e il software dell'utente.

Cliccando su “Accetto”, acconsenti all'uso di cookie, identificatori di dispositivo, web beacon o altre tecnologie simili. Puoi modificare le impostazioni nel browser del tuo dispositivo.

Per determinati scopi, è possibile fare affidamento su interessi legali, piuttosto che sul consenso. Puoi approfondire questo argomento consultando la nostra Informativa sulla privacy e sui cookie.